Location: Waco, TX
(31.5480°N, 97.1670°W)
Time: 00:56:19
(UTC-06:00)

ISS - Pass Details

Date: 28 January 2021
Orbit: 417 x 422 km, 51.6° (Epoch: 09 March)

Event Time Altitude Azimuth Distance (km) Brightness Sun altitude
Rises 21:15:11 0° 332° (NNW) 2,372 - -41.6°
Reaches altitude 10° 21:18:05 10° 359° (N) 1,505 - -42.2°
Maximum altitude 21:19:58 14° 33° (NNE) 1,281 - -42.6°
Drops below altitude 10° 21:21:50 10° 67° (ENE) 1,502 - -43.0°
Sets 21:24:42 0° 94° (E) 2,363 - -43.6°
